GFSNE_250_spd_000.txt.gz
Wind_Speed
111 112 113 115 119 126 132 139 143 137 132 131 135 136 129 123 119 114 113 113 116 118 119 122 121 119 121 123 121 125 123 128 122 123 116 115 118 116
111 112 118 122 127 131 137 140 147 151 139 130 120 109 107 105 104 103 103 101 104 107 110 111 110 110 109 110 109 106 104 110 110 114 107 105 106 101
114 120 123 128 133 137 142 146 147 149 143 116 104 102 99 96 96 94 92 91 91 97 97 97 98 98 99 98 98 97 96 94 95 99 97 97 97 86
118 123 130 134 139 146 146 146 143 128 120 107 97 92 89 89 84 85 87 86 85 87 87 86 86 86 87 86 86 86 87 86 86 86 88 88 90 83
126 130 136 142 144 144 144 139 124 115 110 98 87 87 83 82 77 78 81 81 79 78 78 76 77 77 77 74 75 74 75 78 78 79 78 79 81 79
132 137 142 144 146 141 133 120 114 108 99 92 88 84 83 81 73 72 74 75 74 72 68 65 67 66 67 67 67 67 65 67 70 69 72 70 72 82
138 141 144 143 138 127 116 113 107 101 95 89 86 83 80 77 73 69 66 70 68 66 61 61 59 58 57 58 59 58 59 60 60 62 64 65 67 75
138 140 140 135 121 114 113 105 102 97 90 83 76 73 72 69 64 62 59 61 63 60 49 53 52 51 49 46 46 48 51 53 53 52 56 64 64 67
138 138 131 121 113 109 101 98 97 94 86 75 66 66 64 62 56 55 51 52 55 49 43 52 44 45 41 41 41 41 43 45 46 46 53 58 63 67
136 130 119 112 106 97 93 93 91 86 78 72 64 58 56 52 50 48 46 44 44 43 44 44 41 41 38 37 34 36 38 44 46 47 49 54 61 65
127 119 112 104 96 89 87 85 84 79 73 65 56 53 48 46 44 42 40 37 38 39 39 37 37 38 35 32 32 35 39 42 44 45 48 50 56 59
114 110 103 97 89 86 82 79 74 70 65 60 50 44 43 39 37 36 35 32 33 33 31 32 35 35 33 32 32 34 36 39 42 44 45 47 50 52
108 102 96 90 86 81 77 71 64 60 57 50 46 41 36 34 31 29 29 28 27 27 29 33 34 31 32 31 32 34 35 38 39 41 43 43 44 47
99 95 89 85 80 75 70 64 57 51 47 43 39 36 32 29 26 23 22 24 25 27 28 30 30 30 28 28 30 32 32 34 36 37 38 41 43 47
93 89 86 81 74 68 62 55 50 45 39 35 33 30 25 21 18 18 19 21 21 22 23 25 26 24 24 26 29 29 29 31 32 33 36 39 42 44
86 84 80 74 66 60 56 49 45 39 34 31 27 24 20 17 16 15 16 17 18 18 19 20 20 19 21 24 24 24 26 28 30 32 34 37 39 42
79 76 72 65 58 52 47 43 38 33 29 26 22 19 16 15 14 14 13 14 15 14 14 16 16 17 19 21 20 20 22 25 29 32 33 37 41 43
73 69 62 55 51 45 41 37 31 28 24 20 17 15 13 12 12 11 11 13 13 13 13 13 12 13 15 16 17 18 19 23 27 31 34 36 39 42
66 59 53 48 43 39 35 28 25 22 19 16 14 12 11 10 9 9 10 10 10 11 11 10 10 11 12 14 16 17 18 22 25 31 35 37 40 42
57 51 45 41 36 31 25 22 19 17 15 13 12 10 8 7 7 7 7 7 8 7 6 7 9 11 13 14 15 17 20 23 26 28 31 36 39 40
49 43 39 34 29 23 19 16 14 12 12 11 10 8 7 7 6 5 2 3 4 5 6 7 7 8 10 13 15 18 20 23 26 28 30 31 35 37
42 37 32 27 20 16 14 12 10 9 8 8 7 6 7 7 7 6 6 6 6 7 9 9 8 8 11 14 15 19 20 22 26 28 29 30 31 33
34 29 25 18 14 12 12 10 8 7 6 6 7 7 7 8 9 9 8 9 10 10 11 11 13 13 14 15 17 19 20 22 25 27 30 32 33 35

GFSNE_250_spd_003.txt.gz
Wind_Speed
99 101 107 110 111 111 116 120 128 128 121 125 133 138 137 135 133 132 127 120 113 109 111 111 108 104 107 105 100 102 106 109 110 116 116 119 115 116
104 110 109 108 112 117 122 126 131 140 139 134 133 132 130 121 115 111 107 103 102 101 100 103 101 98 97 97 98 99 98 97 97 101 109 114 104 104
108 104 109 114 119 122 126 131 136 142 144 131 131 127 113 105 100 97 93 92 91 92 93 94 97 92 89 86 88 91 92 92 93 94 98 100 105 102
104 110 116 120 123 128 132 137 140 140 137 129 115 106 100 98 90 86 87 86 86 86 86 85 89 88 82 81 80 81 81 81 81 83 87 89 98 103
113 117 121 126 129 133 137 139 140 137 130 115 102 99 92 90 86 86 83 83 82 79 80 79 81 82 78 75 74 74 72 72 73 75 76 81 87 96
118 123 127 132 136 138 140 139 134 125 113 105 97 91 87 87 84 80 78 79 76 75 72 72 73 75 70 67 68 67 67 67 69 69 68 71 78 88
124 129 134 137 139 139 134 126 117 110 103 96 91 86 83 82 79 78 71 68 71 64 59 62 62 63 62 62 60 59 59 60 61 61 63 64 71 80
131 134 137 140 136 130 120 111 107 102 95 88 84 79 79 78 74 68 64 60 61 53 53 56 47 51 52 51 50 50 53 55 57 58 60 61 64 73
137 138 139 135 125 113 108 101 98 98 90 83 76 75 71 70 66 63 57 51 50 46 46 42 40 42 40 42 45 48 49 50 51 53 56 59 61 65
141 138 130 120 110 105 96 93 91 91 88 79 74 69 65 62 58 54 51 45 43 39 38 34 35 36 38 39 39 40 45 47 47 50 54 57 61 65
137 128 116 109 101 95 89 85 84 82 80 75 70 63 57 53 49 47 43 40 37 35 32 29 29 31 32 34 37 41 44 44 46 48 50 53 55 60
121 112 107 98 93 89 83 79 76 75 72 70 62 55 49 46 44 39 36 33 31 29 29 26 26 28 28 31 35 37 40 44 46 46 46 49 53 55
107 102 98 92 87 82 79 75 72 68 65 60 55 49 44 42 40 35 31 28 27 26 23 21 23 24 26 29 31 33 37 40 42 43 43 46 50 54
98 94 89 83 79 76 73 71 67 63 58 52 47 42 40 38 35 31 25 23 21 19 18 18 19 20 23 23 25 27 33 37 38 38 39 43 47 48
92 87 81 77 73 72 69 64 61 55 50 46 40 36 34 31 28 23 20 19 18 15 14 14 15 17 19 20 23 25 28 30 31 33 36 39 45 46
85 80 77 72 70 67 64 58 53 49 44 39 34 31 29 25 21 18 15 13 12 11 10 11 12 15 18 20 21 23 24 26 28 30 33 37 44 45
75 73 70 69 66 61 56 50 46 42 38 32 28 25 23 19 16 14 12 11 10 8 8 9 10 13 15 16 17 20 23 24 25 27 31 36 40 41
70 68 66 62 57 53 47 44 40 35 30 26 22 19 17 14 12 10 9 9 9 10 10 11 12 12 14 16 17 18 21 24 27 29 33 36 38 41
67 65 60 54 51 45 41 36 32 28 23 19 17 15 13 11 9 9 8 8 8 9 7 6 6 6 9 11 13 16 19 21 24 29 33 36 40 42
62 57 52 48 42 38 33 29 26 22 18 15 13 11 9 8 8 7 7 6 5 6 4 4 4 5 8 9 11 12 15 19 23 26 29 33 36 39
55 51 45 40 35 30 27 24 21 17 14 11 9 7 6 5 5 6 4 4 3 3 3 3 3 5 5 7 8 11 13 15 19 23 26 29 32 34
48 43 37 32 28 25 22 19 17 15 13 11 9 9 8 6 4 5 5 6 3 3 3 2 2 3 5 5 6 7 10 15 18 20 23 26 29 32
40 35 31 26 22 20 17 17 15 14 13 13 13 13 12 11 10 8 8 6 6 6 6 5 5 4 7 9 8 8 10 11 16 21 24 25 27 31

GFSNE_250_spd_006.txt.gz
Wind_Speed
86 90 93 95 102 109 112 112 113 105 101 108 115 122 128 133 137 141 141 141 139 135 129 125 120 115 112 111 111 110 108 108 111 114 116 120 120 126
90 94 101 107 109 108 109 113 117 122 118 118 124 130 134 137 138 136 131 127 118 113 109 107 104 104 104 102 102 101 98 97 97 99 99 104 105 112
98 102 105 104 105 110 114 118 123 130 135 129 134 133 130 125 120 115 106 99 98 100 102 101 98 95 96 95 92 90 88 86 86 90 93 97 99 104
106 103 103 107 112 116 120 125 131 136 138 134 126 121 113 104 100 96 95 94 93 94 90 89 88 86 85 87 86 85 85 82 80 83 84 85 90 97
102 104 110 114 119 124 129 133 134 133 130 123 109 103 97 96 93 93 90 91 88 84 82 83 82 81 81 83 84 82 77 73 72 76 79 83 88 88
108 113 119 124 128 132 134 135 130 122 113 106 102 97 94 93 91 84 86 88 84 78 76 76 74 72 73 74 74 72 69 69 68 69 72 77 81 79
116 122 128 132 135 137 134 124 114 109 105 100 95 93 91 87 84 84 76 76 77 70 66 72 61 66 65 64 65 65 63 64 64 65 69 72 72 73
123 129 133 136 137 131 118 111 111 109 101 92 89 85 84 80 77 75 71 65 68 61 59 59 54 57 52 54 54 56 57 59 61 61 64 65 66 69
132 134 136 134 122 112 109 108 106 104 97 88 80 79 75 73 70 67 62 58 56 54 52 47 46 45 45 45 46 48 52 53 55 56 60 61 61 64
136 137 128 116 112 110 105 100 96 93 88 82 77 70 68 65 61 57 54 52 47 44 40 40 38 39 38 39 40 43 46 49 51 54 55 57 60 63
134 127 116 112 109 104 96 87 85 84 81 75 69 64 60 55 50 48 44 44 41 38 35 33 33 33 33 35 36 38 41 45 48 50 52 54 56 58
121 115 112 107 102 95 87 81 77 75 72 70 62 56 52 47 42 40 39 37 35 32 30 28 26 25 26 28 30 34 37 40 42 45 48 49 49 51
108 104 102 98 92 87 81 75 70 67 66 61 55 50 44 39 37 36 34 32 28 28 25 21 21 20 20 21 26 30 32 35 37 39 42 44 46 47
101 98 94 88 84 79 73 69 66 61 58 54 48 42 37 35 33 31 28 25 21 19 16 14 16 16 17 19 21 23 26 29 34 37 38 40 42 42
97 92 86 80 75 71 67 65 60 55 51 45 39 35 33 31 29 26 22 18 15 13 11 9 10 11 12 14 17 21 23 27 31 35 38 38 39 41
89 85 78 73 67 65 61 57 53 48 42 38 34 32 31 29 25 21 16 13 11 9 9 8 7 6 7 9 11 14 19 22 25 28 31 33 37 39
80 76 70 66 61 56 53 49 46 41 36 33 30 29 26 24 21 17 14 12 10 8 6 6 6 5 5 7 10 13 17 22 26 28 29 30 32 35
74 69 65 60 56 51 47 43 39 34 32 29 27 25 23 20 16 14 12 10 9 8 7 6 6 6 5 7 9 12 16 20 23 26 29 31 32 35
69 64 59 55 50 46 42 37 33 31 29 27 24 22 20 16 14 11 10 9 7 5 3 4 4 4 4 6 8 11 14 16 20 25 27 31 34 35
62 57 53 48 44 40 36 32 30 29 27 24 21 18 15 12 11 8 7 6 4 4 2 2 3 4 5 7 8 11 13 16 18 23 27 31 34 36
54 50 45 41 37 34 30 28 28 26 24 21 18 15 13 12 11 8 5 5 3 2 1 2 4 6 8 10 10 10 12 14 17 20 23 29 32 34
48 43 38 35 32 28 27 27 25 24 22 19 17 14 12 11 11 11 8 5 3 2 0 1 5 8 11 13 13 13 13 14 15 19 23 24 27 31
41 36 34 30 27 26 25 25 23 21 17 15 13 11 10 9 8 8 9 7 4 3 3 2 4 6 11 14 15 16 14 16 16 17 21 25 27 29

GFSNE_250_spd_012.txt.gz
Wind_Speed
89 90 90 93 95 95 93 94 94 84 82 87 94 101 107 111 115 118 120 123 127 131 135 135 136 137 136 135 136 137 136 135 134 135 135 137 134 133
92 93 96 96 95 96 96 95 97 99 93 98 103 109 114 118 123 127 131 134 136 137 136 134 129 126 124 123 120 120 120 120 119 119 120 121 123 125
96 97 97 95 96 94 94 98 103 111 114 109 115 120 124 126 128 131 134 132 127 126 120 114 109 108 109 110 111 111 110 109 108 107 105 105 103 104
99 97 97 95 95 98 103 109 114 120 124 124 122 127 131 131 130 125 118 114 110 106 104 100 98 99 100 98 97 99 99 99 99 98 98 97 95 95
98 97 93 96 102 109 115 119 123 126 129 132 128 126 121 117 111 106 104 102 99 96 92 87 86 85 84 83 83 85 86 86 87 88 88 89 88 90
96 96 101 108 113 119 124 127 128 129 128 126 120 111 104 99 96 94 94 93 89 84 82 79 79 76 74 74 77 78 77 78 78 80 81 82 81 83
99 105 112 119 124 128 129 128 127 123 117 110 102 99 95 92 89 87 82 81 80 73 74 73 71 70 71 70 71 72 73 71 70 71 73 73 72 76
107 115 122 127 130 131 130 124 119 111 102 97 93 88 85 82 80 78 74 72 71 64 69 69 63 65 62 62 60 61 62 62 60 61 62 63 64 67
119 124 128 131 131 125 117 111 107 104 100 91 84 82 78 74 71 69 66 65 64 62 63 61 54 55 52 50 51 50 49 49 50 50 50 52 54 57
126 131 131 127 121 113 104 101 100 95 89 84 80 75 71 69 67 63 61 60 56 53 54 54 47 44 43 43 43 42 42 42 42 43 42 42 45 49
132 132 125 115 108 103 99 94 90 85 81 76 72 69 66 63 60 58 56 53 48 46 45 45 42 39 36 37 36 36 36 35 35 36 35 36 38 41
127 123 114 107 102 98 91 85 81 77 75 71 66 61 58 55 52 50 48 45 43 38 37 35 33 32 30 30 29 29 27 25 24 26 28 29 32 36
116 109 103 100 97 91 85 80 75 71 67 63 59 54 50 46 43 41 40 37 32 31 29 28 26 25 25 27 24 22 18 16 17 18 19 23 27 32
109 103 96 92 87 83 80 74 69 63 59 55 50 46 41 39 37 33 31 28 28 25 22 21 20 21 21 21 18 17 13 12 13 11 13 17 24 31
103 97 90 85 82 77 71 66 60 56 52 47 42 39 33 30 29 27 24 23 20 19 18 16 15 17 18 16 14 12 9 7 7 8 12 15 18 25
96 90 84 81 77 70 63 58 54 50 44 40 36 31 28 25 23 22 19 18 18 16 15 13 12 11 12 13 11 8 5 4 7 10 13 17 19 21
85 82 80 75 67 61 56 52 47 42 38 34 30 26 23 20 19 18 17 16 15 15 14 13 11 9 9 9 9 7 5 4 7 11 15 19 23 27
80 77 73 66 60 53 50 45 41 37 32 29 27 24 21 20 18 16 17 16 15 13 12 11 10 8 9 7 7 7 4 6 9 12 16 21 24 28
76 71 65 57 51 48 43 39 35 32 30 28 25 22 20 19 18 16 16 16 14 12 9 8 6 6 9 8 6 6 6 6 9 12 16 19 25 29
70 63 56 50 47 41 37 33 31 30 28 25 24 22 20 20 18 17 13 14 13 13 11 7 4 4 7 7 8 8 8 7 10 13 16 19 21 23
62 55 49 45 40 37 33 31 28 26 24 23 22 21 21 20 18 17 15 11 10 11 11 9 4 2 3 5 8 10 10 11 13 16 17 18 21 24
54 48 45 40 36 33 32 29 27 25 24 22 20 20 20 19 18 17 15 14 9 8 9 8 4 2 2 6 8 9 13 13 15 17 20 22 21 22
46 43 38 35 34 32 30 29 27 26 25 24 23 22 21 20 19 18 16 13 12 8 7 8 4 1 2 6 10 10 12 15 15 16 19 22 25 26

GFSNE_250_spd_015.txt.gz
Wind_Speed
105 110 107 99 96 95 98 97 91 80 80 86 89 93 98 103 109 113 115 117 121 124 127 128 127 129 128 128 126 126 126 127 124 128 129 131 132 132
113 108 101 98 100 99 96 97 97 93 86 91 95 104 109 113 117 121 123 125 128 129 129 130 130 129 126 124 127 128 128 125 123 123 122 123 126 130
108 102 102 102 98 101 99 98 100 106 108 105 113 118 121 124 125 126 126 125 124 124 123 121 116 113 110 110 109 109 109 109 109 108 107 108 110 111
104 106 102 100 102 98 99 104 110 118 124 123 122 124 126 130 126 120 116 111 107 105 106 104 101 100 102 103 102 101 101 100 101 103 103 101 101 101
107 102 103 99 99 104 109 116 122 127 132 135 127 123 116 112 106 103 101 100 98 97 96 93 90 90 92 93 91 91 90 90 89 89 91 90 91 91
103 103 99 104 108 114 120 125 130 133 133 126 115 108 104 100 97 93 93 92 87 87 82 79 79 80 78 76 78 80 80 78 79 80 81 83 83 82
101 102 108 113 119 124 129 132 132 128 117 107 103 101 96 91 88 85 80 79 77 72 72 75 70 69 68 70 71 70 71 72 71 72 73 74 75 76
104 110 117 122 126 132 132 128 123 113 103 97 96 92 89 82 79 75 71 70 70 62 68 69 61 64 62 62 61 63 62 62 62 61 62 64 67 69
113 119 123 129 132 127 122 116 110 105 100 93 88 86 82 77 73 70 65 62 59 59 61 56 55 54 54 54 54 52 51 52 52 51 52 53 56 59
122 128 130 130 126 118 108 104 102 99 92 86 82 78 74 70 66 62 60 55 49 50 53 48 48 45 44 44 42 41 43 42 43 43 44 44 47 50
128 132 129 122 115 107 101 98 94 88 84 78 75 72 67 63 60 59 54 51 45 43 43 41 39 35 35 36 34 36 35 36 37 37 37 38 40 44
130 126 121 112 106 101 98 90 86 82 78 73 66 63 60 57 53 51 50 46 41 38 36 36 34 33 28 32 28 29 28 29 29 30 32 34 35 37
123 117 110 105 102 96 89 83 79 76 70 65 61 57 53 50 47 44 42 42 38 33 33 30 27 27 24 26 21 21 21 20 21 23 27 29 30 32
116 109 101 99 94 87 82 78 73 68 62 59 55 50 47 44 42 40 38 36 33 32 29 25 22 22 22 20 20 17 15 14 14 17 21 24 26 28
109 101 96 89 84 81 76 72 65 60 57 52 47 45 42 38 37 35 33 32 30 25 23 21 18 17 19 19 17 13 11 10 10 12 15 18 20 23
98 95 87 82 79 77 72 65 59 56 51 46 42 40 37 35 33 31 29 24 24 22 20 20 17 15 15 16 15 10 7 5 5 6 9 11 15 19
92 85 80 77 73 68 63 58 55 50 45 42 40 38 37 34 30 27 26 23 20 19 17 17 16 14 14 13 12 7 4 1 2 4 6 10 14 20
83 78 76 72 68 61 56 54 50 46 42 40 39 36 32 30 26 24 23 21 18 14 13 14 14 12 11 10 10 6 4 2 4 7 8 11 14 20
78 75 71 66 60 56 54 48 44 41 41 38 34 32 30 26 22 20 19 19 17 14 12 11 11 10 9 9 9 5 5 5 6 11 11 14 17 21
75 71 65 60 55 52 47 44 40 40 38 37 34 31 28 25 22 18 16 16 16 14 11 11 8 10 10 9 6 4 4 7 6 12 17 15 19 22
69 64 59 54 51 47 45 43 42 40 37 33 30 29 28 25 21 18 15 14 13 13 11 9 7 7 8 6 2 3 4 8 9 11 20 19 21 23
62 58 53 49 45 44 43 41 39 38 36 34 29 27 25 24 23 20 16 13 11 11 10 7 6 4 5 4 2 3 5 10 10 11 17 24 23 25
56 52 48 43 41 40 39 40 40 37 33 30 27 24 22 22 21 21 18 13 9 7 8 6 4 1 2 2 2 5 7 13 13 14 15 22 25 26

GFSNE_250_spd_018.txt.gz
Wind_Speed
93 97 102 107 112 116 121 112 108 99 87 92 92 94 98 102 106 109 113 117 121 125 127 130 132 131 130 128 127 127 126 126 124 124 124 124 125 122
99 103 109 113 118 123 114 113 109 102 91 93 96 101 106 111 117 121 123 124 124 124 123 124 123 124 124 123 123 122 123 124 125 126 128 128 128 127
105 110 115 119 122 114 113 108 106 106 106 103 112 116 120 124 126 121 116 113 110 111 111 111 108 107 107 108 108 107 107 107 109 111 112 113 114 116
111 115 120 120 114 111 106 105 111 116 120 119 120 124 128 126 119 113 107 104 102 99 98 97 98 98 98 97 97 98 99 99 99 99 99 98 98 99
115 120 116 113 108 105 108 114 120 124 129 129 126 122 116 111 105 101 97 96 92 88 89 89 86 86 85 84 85 85 86 87 90 91 90 90 91 92
119 112 111 106 103 110 116 123 127 130 131 125 117 109 103 99 95 90 88 85 81 78 82 75 75 74 73 74 75 74 75 76 78 78 79 81 82 82
110 109 103 104 111 118 124 128 133 131 121 112 106 99 95 92 88 84 79 77 74 71 72 64 69 65 66 65 65 66 67 67 68 68 70 72 73 74
103 100 106 112 118 125 130 134 132 119 106 101 99 96 92 85 83 77 73 67 68 64 64 56 59 57 58 54 56 58 58 58 59 60 63 65 66 69
100 106 112 118 125 129 132 127 118 111 103 97 94 89 85 79 75 70 65 58 54 58 60 47 51 47 49 50 50 48 48 50 51 52 54 58 60 63
108 113 118 123 131 131 121 115 111 104 100 94 87 83 76 70 65 61 58 54 46 51 51 47 46 39 40 42 42 39 41 43 44 47 49 50 53 56
113 119 125 129 129 118 112 108 103 101 93 85 79 73 67 61 58 56 52 49 44 41 42 41 41 37 35 34 31 32 34 36 38 40 42 43 45 49
116 125 130 129 118 112 106 101 99 91 85 79 71 63 59 55 51 49 48 47 41 41 37 37 36 38 31 32 26 26 28 29 32 34 35 36 38 40
124 130 127 118 111 105 102 97 87 82 76 70 63 58 53 50 48 45 44 44 43 37 37 35 32 29 30 26 23 21 23 25 26 27 28 30 30 31
129 125 116 111 104 100 94 86 80 74 67 62 56 53 50 47 44 42 42 41 39 37 34 32 28 24 22 21 19 18 19 20 21 22 23 24 24 25
124 117 109 101 96 90 83 80 73 66 59 54 51 49 46 45 42 39 38 37 35 35 33 30 27 22 18 16 16 17 18 18 18 18 19 19 19 19
115 106 96 92 86 81 78 73 65 59 55 51 47 44 44 41 37 36 35 33 29 28 29 28 22 15 13 12 12 14 15 14 13 13 15 15 13 13
99 93 88 82 78 74 67 62 58 54 51 48 47 43 40 38 37 32 31 30 28 23 25 23 17 12 11 9 10 12 12 10 8 9 11 10 6 5
90 85 79 75 72 66 60 53 50 49 47 46 44 42 39 35 32 31 28 28 24 20 18 18 14 10 9 8 7 9 8 5 6 7 5 2 1 6
83 77 74 70 64 59 53 50 47 45 44 40 36 33 32 30 27 25 24 24 23 18 15 14 12 8 7 7 5 6 6 6 6 3 2 7 8 11
75 73 68 63 57 52 49 48 46 43 41 41 38 34 29 26 24 23 20 21 19 17 12 10 8 5 7 7 5 5 5 8 8 3 9 11 12 16
71 66 61 55 50 48 47 45 43 42 40 36 33 30 27 25 21 17 17 17 17 15 10 6 5 5 6 7 6 6 9 11 12 8 15 15 15 20
65 59 53 48 46 45 43 43 41 39 35 31 26 23 21 19 19 18 15 13 13 12 8 3 2 5 8 9 8 7 12 14 15 13 17 20 20 23
57 50 45 43 41 41 42 41 40 39 32 26 22 20 19 18 17 17 15 11 9 8 6 2 1 6 9 9 10 9 14 16 18 19 21 24 26 24